Location: Prague
(50.0830°N, 14.4670°E)
Time: 11:29:23
(UTC+01:00)

AO-7 - Pass Details

Date: 16 December 2021
Orbit: 1440 x 1459 km, 101.9° (Epoch: 29 January)

Event Time Altitude Azimuth Distance (km) Brightness Sun altitude
Rises 02:08:00 0° 31° (NNE) 4,555 ? -53.1°
Reaches altitude 10° 02:13:54 10° 64° (ENE) 3,575 ? -52.4°
Maximum altitude 02:16:13 11° 80° (E) 3,473 ? -52.0°
Drops below altitude 10° 02:18:33 10° 97° (E) 3,573 ? -51.7°
Sets 02:24:22 0° 129° (SE) 4,549 ? -50.9°
